Probability
0 0 0 0 0 0 0 0 0 0 0 0 0 0 0 0 0 0 0 0 0 0 0 0 0 0 0 0 0 0 0 0 0 0 0 0 0 0 0 0 0 0 0
0 0 0 0 0 0 0 0 0 0 0 0 0 0 0 0 0 0 0 0 0 0 0 0 0 0 0 0 0 0 0 0 0 0 0 0 0 0 0 0 0 0 0
0 0 0 0 0 0 0 0 0 0 0 0 0 0 0 0 0 0 0 0 0 0 0 0 0 0 0 0 0 0 0 0 0 0 0 0 0 0 0 0 0 0 0
0 0 0 0 0 0 0 0 0 0 0 0 0 0 0 0 0 0 0 0 0 0 0 0 0 0 0 0 0 0 0 0 0 0 0 0 0 0 0 0 0 0 0
0 0 0 0 0 0 0 0 0 0 0 0 0 0 0 0 0 0 0 0 0 0 0 0 0 0 0 0 0 0 0 0 0 0 0 0 0 0 0 0 0 0 0
0 0 0 0 0 0 0 0 0 0 0 0 0 0 0 0 0 0 0 0 0 0 0 0 0 0 0 0 0 0 0 0 0 0 0 0 0 0 0 0 0 0 0
0 0 0 0 0 0 0 0 0 0 0 0 0 0 0 0 0 0 0 0 0 0 0 0 0 0 0 0 0 0 0 0 0 0 0 0 0 0 0 0 0 0 0
1 1 0 0 0 0 0 0 0 0 0 0 0 0 0 0 0 0 0 0 0 0 0 0 0 0 0 0 0 0 0 0 0 0 0 0 0 0 0 0 0 0 0
3 2 1 0 0 0 0 0 0 0 0 0 0 0 0 0 0 0 0 0 0 0 0 0 0 0 0 0 0 0 0 0 0 0 0 0 0 0 0 0 0 0 0
4 4 3 1 1 2 1 1 0 0 0 0 0 0 0 0 0 0 0 0 0 0 0 0 0 0 0 0 0 0 0 0 0 0 0 0 0 0 0 0 0 0 0
4 3 3 2 3 3 3 2 1 0 0 0 0 0 0 0 0 0 0 0 0 0 0 0 0 0 0 0 0 0 0 0 0 0 0 0 0 0 0 0 0 0 0
4 3 3 3 3 3 3 3 2 1 0 0 0 0 0 0 0 0 0 0 0 0 0 0 0 0 0 0 0 0 0 0 0 0 0 0 0 0 0 0 0 0 0
5 4 3 3 3 3 3 3 3 2 1 0 0 0 0 0 0 0 0 0 0 0 0 0 0 0 0 0 0 0 0 0 0 0 0 0 0 0 0 0 0 0 0
3 3 3 3 3 3 3 3 3 2 1 0 0 0 0 0 0 0 0 0 0 0 0 0 0 0 0 0 0 0 0 0 0 0 0 0 0 0 0 0 0 0 0
1 1 2 2 2 3 3 3 3 1 0 0 0 0 0 0 0 0 0 0 0 0 0 0 0 0 0 0 0 0 0 0 0 0 0 0 0 0 0 0 0 0 0
0 0 1 1 1 1 2 2 2 1 0 0 0 0 0 0 0 0 0 0 0 0 0 0 0 0 0 0 0 0 0 0 0 0 0 0 0 0 0 0 0 0 0
0 0 0 0 0 0 1 1 1 0 0 0 0 0 0 0 0 0 0 0 0 0 0 0 0 0 0 0 0 0 0 0 0 0 0 0 0 0 0 0 0 0 0
0 0 0 0 0 0 0 0 0 0 0 0 0 0 0 0 0 0 0 0 0 0 0 0 0 0 0 0 0 0 0 0 0 0 0 0 0 0 0 0 0 0 0
0 0 0 0 0 0 0 0 0 0 0 0 0 0 0 0 0 0 0 0 0 0 0 0 0 0 0 0 0 0 0 0 0 0 0 0 0 0 0 0 0 0 0
0 0 0 0 0 0 0 0 0 0 0 0 0 0 0 0 0 0 0 0 0 0 0 0 0 0 0 0 0 0 0 0 0 0 0 0 0 0 0 0 0 0 0
0 0 0 0 0 0 0 0 0 0 0 0 0 0 0 0 0 0 0 0 0 0 0 0 0 0 0 0 0 0 0 0 0 0 0 0 0 0 0 0 0 0 0
0 0 0 0 0 0 0 0 0 1 1 1 0 0 0 0 0 0 0 0 0 0 0 0 0 0 0 0 0 0 0 0 0 0 0 0 0 0 0 0 0 0 0
0 0 0 0 0 0 0 0 0 1 2 1 0 0 0 0 0 0 0 0 0 0 0 0 0 0 0 0 0 0 0 0 0 0 0 0 0 0 0 0 0 0 0
0 0 0 0 0 0 0 0 0 1 1 1 0 0 0 0 0 0 0 0 0 0 0 0 0 0 0 0 0 0 0 0 0 0 0 0 0 0 0 0 0 0 0
0 0 0 0 0 0 0 0 0 0 0 0 0 0 0 0 0 0 0 0 0 0 0 0 0 0 0 0 0 0 0 0 0 0 0 0 0 0 0 0 0 0 0
0 0 0 0 0 0 0 0 0 0 0 0 0 0 0 0 0 0 0 0 0 0 0 0 0 0 0 0 0 0 0 0 0 0 0 0 0 0 0 0 0 0 0
Wind_Speed
3 3 2 2 2 2 2 2 2 2 2 3 3 4 4 4 4 4 3 8 9 8 8 9 8 8 8 8 7 7 7 7 7 7 6 6 7 6 6 5 5 5 5
3 3 3 2 2 2 2 2 2 2 2 2 2 3 3 4 4 4 3 4 7 8 8 8 8 8 8 8 8 8 8 7 7 7 7 6 6 6 6 6 5 5 5
4 4 3 3 2 2 3 2 3 2 2 2 2 2 2 3 4 4 3 2 3 6 7 8 8 8 8 8 8 9 8 8 7 7 7 7 7 7 6 6 6 6 5
5 4 3 3 3 3 3 3 2 2 2 2 1 1 1 1 3 3 3 2 2 3 5 7 7 7 8 8 9 9 9 8 8 8 8 8 8 8 7 7 7 7 6
5 4 3 3 4 3 3 3 2 2 2 2 2 1 1 0 1 2 3 3 3 3 3 4 6 7 8 9 8 8 9 9 9 10 10 10 10 9 9 8 8 8 8
5 4 3 4 4 3 3 2 3 2 2 2 2 2 2 1 0 1 2 2 3 4 4 3 3 4 7 8 8 8 8 9 10 10 10 11 11 10 10 10 10 9 9
6 5 4 4 4 4 4 4 3 3 2 1 2 2 2 2 1 0 1 1 3 3 4 4 3 3 3 5 6 7 8 9 9 10 10 10 11 10 10 11 11 11 11
6 6 5 5 4 4 4 3 3 3 2 1 3 2 2 3 2 1 1 2 2 2 3 4 4 4 4 3 4 7 8 9 9 9 9 9 10 10 10 10 11 11 12
6 5 6 5 5 5 4 4 4 4 3 1 1 3 3 2 2 2 1 1 1 1 2 3 4 5 5 4 4 6 8 8 9 10 9 9 9 9 9 10 11 11 11
6 6 6 6 5 4 5 4 4 3 4 3 1 1 2 3 2 1 2 1 1 2 2 2 3 4 4 4 4 6 7 7 9 9 9 9 9 9 10 10 11 11 11
5 6 6 6 5 4 5 4 4 4 3 3 3 2 2 1 1 2 1 2 2 1 2 2 3 3 3 4 4 6 7 8 7 8 8 8 8 8 9 10 11 11 11
3 5 5 5 5 5 5 5 4 5 3 3 3 2 3 3 2 2 2 1 1 2 2 2 2 3 3 3 5 6 7 7 7 7 7 7 7 8 8 9 10 10 11
3 5 5 5 5 5 5 5 5 4 4 4 4 2 2 2 2 3 2 1 1 2 2 2 1 2 2 2 3 5 5 6 6 6 6 7 7 7 8 8 9 10 10
5 5 6 6 6 6 6 5 4 4 4 4 4 3 2 2 2 3 3 3 1 1 2 3 2 2 2 2 3 4 3 5 5 5 6 6 7 7 7 8 8 8 9
5 6 6 6 6 6 6 6 4 4 4 4 4 3 2 1 2 2 2 2 3 1 2 2 2 2 2 2 2 2 2 3 4 5 5 6 6 6 7 7 8 8 8
5 7 6 6 5 5 6 5 4 4 4 3 3 3 2 1 1 1 2 1 2 3 2 1 1 2 3 3 3 2 2 3 4 4 4 5 5 6 6 7 7 7 8
7 7 6 6 6 6 6 5 5 5 5 4 3 4 3 3 2 1 2 2 2 2 2 1 1 2 3 4 4 3 3 2 3 4 4 4 4 5 5 6 7 7 8
7 7 7 6 6 6 6 6 6 5 6 5 4 4 3 3 2 2 2 2 1 2 2 2 1 2 2 3 4 4 4 4 3 6 6 6 6 5 5 6 6 6 7
6 6 6 6 6 6 6 5 5 5 5 4 4 4 3 3 3 2 2 1 1 1 1 1 1 1 2 3 3 3 4 4 4 5 6 7 7 7 7 6 6 5 5
6 6 5 5 5 5 5 5 5 5 5 4 4 3 3 3 3 3 2 2 2 2 2 1 1 1 2 2 2 3 4 4 4 4 6 6 7 7 8 8 7 7 6
6 6 5 5 4 4 4 6 6 6 6 6 5 5 5 6 6 4 3 2 3 2 2 2 1 1 2 3 3 3 3 4 3 4 4 4 4 4 5 6 7 8 7
6 6 6 5 4 3 5 7 7 6 6 6 6 5 6 7 9 10 10 9 6 4 2 2 2 2 3 3 3 3 3 3 3 4 5 5 4 4 5 4 6 7 8
7 7 6 6 6 5 7 9 10 8 7 6 6 5 5 6 7 8 12 14 13 13 8 4 4 3 2 3 3 3 3 3 3 5 4 4 4 4 5 6 9 8 8
7 7 7 7 7 7 10 11 13 10 9 8 7 6 7 6 6 7 8 10 9 9 9 7 5 4 4 3 3 2 3 3 3 3 4 3 4 5 6 6 7 8 9
8 7 7 8 9 8 11 12 12 9 9 9 8 8 8 8 9 9 9 9 8 7 9 12 11 10 11 11 7 4 4 4 3 3 4 4 4 6 6 5 5 9 11
9 9 9 8 9 8 10 12 12 8 9 8 8 8 11 10 11 10 8 8 7 5 5 6 8 9 8 9 11 6 4 3 3 3 4 4 4 5 6 4 6 8 9
Wind_Direction
152 149 143 137 135 125 125 125 118 115 106 113 133 147 156 157 160 162 174 186 184 183 180 178 178 177 175 175 176 176 175 174 171 166 168 169 168 168 168 167 167 164 163
159 157 154 154 153 148 142 140 133 123 112 112 121 143 154 159 167 166 176 194 195 190 190 191 191 191 190 190 190 191 188 188 185 183 184 183 182 185 186 186 186 182 179
163 162 161 167 170 152 135 118 109 99 108 108 111 137 146 159 170 177 181 188 201 202 201 203 202 204 204 204 204 203 202 200 195 194 196 195 194 196 197 199 200 198 198
165 160 165 177 164 145 135 130 121 105 107 116 126 125 137 151 173 180 182 191 200 209 213 215 212 214 217 219 218 215 211 209 203 205 206 205 206 207 208 209 212 210 210
169 163 169 169 153 141 142 150 121 125 127 122 117 84 67 106 183 194 202 207 210 214 218 230 228 224 226 231 230 230 221 217 213 215 217 217 218 217 216 217 220 219 218
168 162 160 158 151 141 144 140 122 97 104 120 101 74 47 34 87 221 227 218 219 223 223 231 238 243 240 242 241 241 236 228 222 222 226 227 227 225 221 222 224 225 226
167 164 162 157 158 158 160 147 122 112 97 104 89 48 17 22 32 261 244 236 235 230 223 226 230 232 245 252 252 248 245 240 232 228 229 232 233 231 227 226 227 229 230
171 173 166 167 164 149 144 149 134 121 102 106 119 97 33 354 344 348 263 236 243 233 233 232 226 228 234 242 251 253 251 248 245 238 235 235 236 235 232 232 231 233 234
175 171 170 164 163 158 161 163 154 144 139 107 111 137 143 213 292 321 312 281 259 234 247 254 241 236 234 235 246 253 254 252 251 250 245 238 238 237 237 238 240 241 241
173 171 167 165 162 159 159 166 160 150 141 144 118 96 135 152 151 306 320 320 290 246 250 252 251 244 236 235 240 244 251 255 256 255 252 246 241 238 238 240 245 247 247
174 170 164 162 161 162 161 157 151 152 147 152 154 145 124 96 116 148 267 319 329 298 267 255 257 254 244 237 242 248 248 251 256 258 257 255 253 247 242 243 248 252 254
169 169 166 165 165 164 165 162 158 158 152 144 150 153 154 155 170 162 181 248 293 306 311 290 266 259 253 244 249 252 248 250 254 257 259 261 264 260 256 255 256 258 261
176 178 172 169 168 169 165 157 155 159 158 155 160 161 159 159 151 148 148 164 277 312 320 309 290 286 271 253 259 262 259 257 256 258 259 262 265 266 266 265 265 264 265
178 170 170 172 171 166 162 155 151 161 161 162 165 158 151 160 159 161 157 149 134 330 324 308 327 327 307 286 275 266 272 266 263 263 264 265 266 267 268 270 270 267 265
166 167 170 170 167 163 159 154 155 161 157 163 164 160 152 155 162 165 156 156 154 185 268 303 316 336 335 324 314 289 277 293 286 279 274 273 273 273 275 275 275 273 271
165 163 166 164 162 161 158 153 151 156 153 158 157 154 148 143 144 146 155 156 157 166 215 265 287 326 341 351 4 351 326 321 311 306 297 290 286 285 283 280 280 279 276
166 167 168 165 166 165 162 161 161 159 160 159 156 156 156 145 141 146 138 142 154 159 201 265 287 325 351 5 10 11 8 1 349 344 335 328 319 309 301 293 289 286 283
169 169 165 165 171 170 168 169 167 165 165 166 164 156 161 147 137 135 137 150 165 180 194 235 319 346 2 6 5 9 13 14 6 17 15 8 355 344 333 323 315 308 300
160 161 161 165 168 168 167 168 163 159 160 161 156 154 156 144 137 131 128 132 136 142 161 177 339 356 357 7 360 5 13 6 6 18 22 19 14 9 3 358 354 349 338
150 152 154 155 158 159 162 160 152 146 140 133 128 128 129 135 138 133 118 112 109 100 92 93 48 4 351 352 5 358 356 360 356 8 8 8 13 14 11 10 7 3 356
145 142 138 134 138 146 158 154 147 141 130 116 101 96 96 97 96 97 98 97 99 95 90 81 59 29 13 8 5 349 347 340 351 8 350 353 356 2 2 357 357 360 0
121 118 120 126 126 135 137 141 134 126 123 117 107 92 83 79 81 79 78 74 74 82 88 83 63 46 22 4 352 354 351 351 340 358 343 334 348 349 347 343 345 346 346
117 110 110 109 105 101 115 120 120 115 109 104 100 94 86 78 79 84 77 70 62 59 64 88 76 50 24 360 351 355 356 345 318 328 328 315 333 334 336 336 338 341 344
112 109 105 104 101 94 100 106 108 102 94 87 86 91 93 84 82 92 88 78 69 57 57 64 71 53 39 18 12 357 333 322 301 331 345 315 328 325 323 318 328 339 340
106 100 98 101 99 91 95 104 104 100 94 84 77 77 85 82 77 88 91 85 73 59 59 61 60 54 46 41 35 28 15 3 345 345 360 331 323 319 308 302 320 332 331
104 99 90 86 90 90 92 101 105 106 101 94 81 73 73 81 79 80 85 87 78 55 52 51 45 39 37 35 34 33 16 3 345 330 358 339 325 330 313 305 320 324 321